Weather History for Holland, MI

Change the Weather History Date:

Friday, September 20, 2013

  Actual Average Record
Temperature  
Mean Temperature 71 °F 62 °F  
Max Temperature 78 °F 72 °F 87 °F (1974)
Min Temperature 64 °F 52 °F 32 °F (1956)
Degree Days  
Heating Degree Days 0 5  
Month to date heating degree days 54 51  
Since 1 July heating degree days 73 66  
Cooling Degree Days 6 1  
Month to date cooling degree days 87 53  
Year to date cooling degree days 794 671  
Growing Degree Days 20 (Base 50)    
Moisture  
Dew Point 64 °F    
Average Humidity 79    
Maximum Humidity 84    
Minimum Humidity 73    
Precipitation  
Precipitation 0.00 in 0.15 in 0.79 in (1957)
Month to date precipitation 0.88 2.31  
Year to date precipitation 28.89 25.52  
Sea Level Pressure  
Sea Level Pressure 29.79 in    
Wind  
Wind Speed 11 mph (SW)    
Max Wind Speed 23 mph    
Max Gust Speed 32 mph    
Visibility 10 miles    
Events      
T = Trace of Precipitation, MM = Missing Value Source: NWS Daily Summary

Daily Weather History Graph

Daily Weather History Graph

Search for Another Location

Airport:

Trip Planner

Search our weather history database for the weather conditions in past years. The results will help you decide how hot, cold, wet, or windy it might be!

Date:

Astronomy

Sep. 20, 2013 Rise Set
Actual Time 7:29 AM EDT 7:44 PM EDT
Civil Twilight 7:01 AM EDT 8:13 PM EDT
Nautical Twilight 6:28 AM EDT 8:46 PM EDT
Astronomical Twilight 5:54 AM EDT 9:19 PM EDT
Moon 8:14 PM EDT (9/20) 8:46 AM EDT (9/20)
Length of Visible Light 13h 11m
Length of Day
12h 15m
Full, 98% of the Moon is Illuminated
Sep 20
Full
Sep 26
Last Quarter
Oct 4
New
Oct 11
First Quarter
Oct 18
Full

Hourly Weather History & Observations

Time (EDT) Temp. Dew Point Humidity Pressure Visibility Wind Dir Wind Speed Gust Speed Precip Events Conditions
12:53 AM 73.0 °F 68.0 °F 84% 29.81 in 10.0 mi South 10.4 mph - N/A   Partly Cloudy
1:53 AM 77.0 °F 69.1 °F 76% 29.81 in 10.0 mi SSW 18.4 mph 25.3 mph N/A   Mostly Cloudy
2:53 AM 77.0 °F 69.1 °F 76% 29.80 in 10.0 mi SSW 17.3 mph 25.3 mph N/A   Clear
3:53 AM 77.0 °F 70.0 °F 79% 29.79 in 10.0 mi SSW 13.8 mph 21.9 mph N/A   Partly Cloudy
4:53 AM 73.9 °F 68.0 °F 82% 29.78 in 10.0 mi SW 12.7 mph - N/A   Clear
5:53 AM 71.1 °F 66.9 °F 87% 29.76 in 9.0 mi South 6.9 mph - N/A   Clear
6:53 AM 71.1 °F 64.9 °F 81% 29.80 in 10.0 mi SW 9.2 mph - N/A   Overcast
7:53 AM 70.0 °F 64.0 °F 81% 29.81 in 10.0 mi SW 11.5 mph - N/A   Partly Cloudy
8:51 AM 69.8 °F 64.4 °F 83% 29.82 in 10.0 mi SW 11.5 mph 21.9 mph N/A   Overcast
8:53 AM 70.0 °F 64.9 °F 84% 29.81 in 10.0 mi SW 10.4 mph 21.9 mph N/A   Overcast
9:13 AM 69.8 °F 64.4 °F 83% 29.82 in 10.0 mi WSW 16.1 mph - N/A   Overcast
9:53 AM 70.0 °F 64.9 °F 84% 29.82 in 10.0 mi WSW 11.5 mph 19.6 mph N/A   Overcast
10:53 AM 70.0 °F 64.9 °F 84% 29.81 in 10.0 mi SW 11.5 mph 23.0 mph N/A   Overcast
11:53 AM 71.1 °F 64.9 °F 81% 29.80 in 10.0 mi SW 13.8 mph 24.2 mph N/A   Overcast
12:53 PM 71.1 °F 66.0 °F 84% 29.80 in 10.0 mi SW 15.0 mph - N/A   Overcast
1:53 PM 71.1 °F 66.0 °F 84% 29.79 in 10.0 mi SW 15.0 mph - N/A   Overcast
2:53 PM 72.0 °F 66.0 °F 81% 29.77 in 10.0 mi SW 16.1 mph 21.9 mph N/A   Overcast
3:04 PM 73.4 °F 66.2 °F 78% 29.78 in 10.0 mi SW 15.0 mph - N/A   Overcast
3:08 PM 73.4 °F 66.2 °F 78% 29.78 in 10.0 mi SW 12.7 mph 23.0 mph N/A   Overcast
3:53 PM 71.1 °F 66.0 °F 84% 29.77 in 10.0 mi SW 12.7 mph - N/A   Overcast
4:15 PM 71.6 °F 66.2 °F 83% 29.77 in 10.0 mi WSW 13.8 mph - N/A   Overcast
4:53 PM 72.0 °F 66.0 °F 81% 29.76 in 10.0 mi WSW 11.5 mph - N/A   Scattered Clouds
5:53 PM 72.0 °F 64.9 °F 78% 29.76 in 10.0 mi SW 11.5 mph - N/A   Mostly Cloudy
6:53 PM 70.0 °F 64.0 °F 81% 29.75 in 10.0 mi WSW 8.1 mph - N/A   Clear
7:53 PM 69.1 °F 64.0 °F 84% 29.75 in 10.0 mi WSW 10.4 mph - N/A   Scattered Clouds
8:53 PM 68.0 °F 61.0 °F 78% 29.77 in 10.0 mi WNW 10.4 mph 17.3 mph N/A   Overcast
9:53 PM 66.0 °F 57.9 °F 75% 29.78 in 10.0 mi WNW 6.9 mph - N/A   Mostly Cloudy
10:00 PM 66.2 °F 57.2 °F 73% 29.79 in 10.0 mi West 6.9 mph - N/A   Mostly Cloudy
10:28 PM 66.2 °F 55.4 °F 68% 29.78 in 10.0 mi WNW 6.9 mph - N/A   Mostly Cloudy
10:53 PM 64.9 °F 55.9 °F 73% 29.78 in 10.0 mi West 5.8 mph - N/A   Mostly Cloudy
11:53 PM 64.0 °F 55.9 °F 75% 29.78 in 10.0 mi West 4.6 mph - N/A   Partly Cloudy